STARLINK-38067, 69747

Orbit data source: Space-Track

STARLINK-38067, 69747 is a payload satellite owned by SpaceX/Seattle (US) in SSO that was launched on Thu, 02 Jul 2026 UTC via an FALCON 9 launch vehicle from the Air Force Western Test Range (AFWTR). Payload-class satellites include a variety of spacecraft equipped with specific instruments for various scientific and technological missions. These include communications satellites like Starlink; space stations such as the ISS; scientific satellites like the Hubble; Earth observation satellites from companies like Planet Labs, Umbra, and HawkEye 360; GPS; miniature CubeSats for education and research; and military/defense satellites.

Not visible in the next 10 days
Identifier
69747, 2026-150J
Orbit
SSO
Country
Flag of USUS
Related business
Manufacturer
SpaceX/Seattle
Mission
Operational spacecraft
Bus & Motor
STARLINK V2MO, Unknown motor
Mass
575 kg wet, ~530 kg dry
Launch date (UTC)
2026-07-02 (3 weeks ago)
Launch vehicle
FALCON 9
Launch site
Air Force Western Test Range (AFWTR)
Object type
Payload
Rocket body
Debris
Shape & HBR
Unknown shape, 17.7 m
Radar Cross Section
Large (>1 m²)

Expand to show TLE details & history
Last TLE update: 17 hours ago

TLE from 17 hours ago
0 STARLINK-38067
1 69747U 26150J   26202.50748461  .00179842  00000-0  11780-2 0  9994
2 69747  97.2868  41.1622 0001352 113.2030 246.9378 15.75255894  4310
Epoch: 2026-07-21T12:10Z
TLE epoch observation values (Epoch: 2026-07-21T12:10:46.670Z)
Latitude
0.00001°
Longitude
-80.80844°
Altitude
347.428 km
Speed
7.7 km/s
True Right ascension
02h 44m 38s
True Declination
0° 00' 00"
Sunlit
Object was in daylight at epoch
Visualization orbit readout
Latitude
Unknown
Longitude
Unknown
Altitude
Unknown
Speed
Unknown
Apparent Right ascension
Unknown
Apparent Declination
Unknown
Sunlit
N/A
Visualization observer readout
Local Sidereal Time
17:42:20
Azimuth
Unknown
Elevation
Unknown
Doppler factor
Unknown
Orbital elements
Apogee altitude
341.699 km
Perigee altitude
339.882 km
Semi-major axis
6,718.928 km
Eccentricity
0.00014
Inclination
97.2868°
RAAN
41.1622°
Arg. of periapsis
113.203°
True anomaly
246.92355°
Mean anomaly
246.9378°
Eccentric anomaly
246.93067°
Mean motion
3.94088 °/min
Orbital period
91.35 mins
BSTAR
0.001178
Loading maneuver chart data...
Computing Atmospheric mass density...
Loading historical data...
Loading historical data...
Loading historical data...
Loading historical data...
Loading historical data...
Loading historical data...
Loading historical data...

Documentation

Showing up to 5 results
|